カタログに戻る

FENGYUN 1C DEB

運用中SSO
NORAD 31028·DEBRIS·🇨🇳 China

打ち上げ May 10, 1999 から Taiyuan Satellite Launch Center

Loading…

次のパス (今後24時間)

TLE

最新Source: Space-Track

元期: Sep 13, 2026, 13:33 UTC

1 31028U 99025BDW 26256.56524940  .00000166  00000-0  15301-3 0  9991
2 31028  98.7113 175.8052 0163854 261.7619  96.4930 13.89243691658198

AllMySatでFENGYUN 1C DEBをリアルタイム追跡

Download on the App Store